Miscellaneous Local Product
Issued by NWS North Platte, NE

Home | Current Version | Previous Version | Text Only | Print | Product List | Glossary On
Versions: 1 2 3 4 5 6 7 8 9 10 11 12 13 14 15 16 17 18 19 20 21 22 23 24 25 26 27 28 29 30 31 32 33 34 35 36 37 38 39 40 41 42 43 44 45 46 47 48 49 50
000
AXUS43 KLBF 071110
MISLBF


WESTERN AND NORTH CENTRAL NEBRASKA HOURLY WEATHER ROUNDUP
NATIONAL WEATHER SERVICE NORTH PLATTE NE
600 AM CDT FRI MAY 07 2021

NOTE: "FAIR" INDICATES FEW OR NO CLOUDS BELOW 12,000 FEET WITH NO
SIGNIFICANT WEATHER AND/OR OBSTRUCTIONS TO VISIBILITY.

NOTE: STATIONS NOT REPORTING SKY/WEATHER AND PRESSURE ARE
PROVIDED BY RAWS AND APRS NETWORKS AND ARE NOT UNDER NATIONAL
WEATHER SERVICE QUALITY CONTROL.

...OBSERVATIONS IN AND NEAR THE EASTERN PANHANDLE OF NEBRASKA...

CITY           SKY/WX    TMP DP  RH WIND       PRES   REMARKS
PINE RIDGE     CLEAR     37  31  78 E5        30.07F
GORDON         CLEAR     31  29  90 NE3       30.08F
CHADRON        CLEAR     35  31  85 W6        30.05F
ALLIANCE       CLEAR     38  36  92 E7        30.04F
SIDNEY         CLEAR     39  37  92 SE6       30.04F
CRESCENT LAKE    N/A     44  41  88 SE5         N/A
$$

...OBSERVATIONS IN NORTHERN NEBRASKA AND FAR SOUTHERN SOUTH DAKOTA...

CITY           SKY/WX    TMP DP  RH WIND       PRES   REMARKS
WINNER         CLEAR     40  30  67 E10       30.14S
VALENTINE      CLEAR     34  30  85 CALM      30.11F
AINSWORTH      CLEAR     42  32  67 CALM      30.11F
O`NEILL        CLOUDY    44  34  67 N6        30.14S
BROKEN BOW     CLEAR     37  32  82 CALM      30.12S
ORD            CLEAR     34  31  88 W6        30.11F
ALBION         PTCLDY    40  36  86 N3        30.11F
EWING            N/A     47  37  68 CALM        N/A
CHAMBERS         N/A     44  37  77 CALM        N/A
BUTTE            N/A     43  32  65 NE12        N/A
HALSEY           N/A     41  30  64 CALM        N/A
$$

...OBSERVATIONS IN SOUTHWEST NEBRASKA AND FAR NORTHEAST COLORADO...

CITY           SKY/WX    TMP DP  RH WIND       PRES   REMARKS
WRAY           FAIR      45  37  76 NE6       30.06S
HOLYOKE        CLEAR     41  37  87 E8        30.06F
IMPERIAL       CLEAR     42  37  82 SE8       30.07F
OGALLALA       CLEAR     47  39  75 CALM      30.08F
NORTH PLATTE   CLEAR     44  36  73 E3        30.10F
MCCOOK         CLEAR     46  37  71 SE8       30.09F
LEXINGTON      CLEAR     49  37  64 SW6       30.13S
CALLAWAY         N/A     44  39  83 CALM        N/A
STAPLETON        N/A     39  34  82 CALM        N/A
$$

...OBSERVATIONS IN CENTRAL LINCOLN COUNTY AREA...

CITY           SKY/WX    TMP DP  RH WIND       PRES   REMARKS
N.P. AIRPORT   CLEAR     44  36  73 E3        30.10F
N.P. HILLCREST   N/A     49  38  67 E5          N/A
N.P. DOWNTOWN    N/A     48  38  69 CALM        N/A
$$

...OBSERVATIONS ACROSS THE ROCKIES AND WESTERN HIGH PLAINS...

CITY           SKY/WX    TMP DP  RH WIND       PRES   REMARKS
SCOTTSBLUFF    CLEAR     39  34  82 E6        30.04F
KIMBALL        CLEAR     36  33  90 CALM      30.06S
CHEYENNE       CLEAR     40  35  83 W9        30.07F
DENVER         PTCLDY    49  39  68 SW12      30.05F
STEAMBOAT      FAIR      36  20  52 CALM      30.16S
COPPER MTN     CLEAR     43  10  26 SW15      30.47S
LEADVILLE      CLEAR     26  16  65 NE3       30.34F
ASPEN          CLEAR     40  23  50 SW8       30.22F
GUNNISON       CLEAR     33  21  61 CALM      30.30R
TELLURIDE      PTCLDY    46  19  34 SE9       30.32F
LARAMIE        CLEAR     37  28  70 S10       30.13F
CASPER         CLEAR     32  28  85 NW3       30.02F
SHERIDAN       CLEAR     38  33  82 CALM      29.96F
JACKSON        PTCLDY    34  27  75 NW3       30.07R
YELLOWSTONE      N/A     28  26  92 W3        30.10F
$$

...OBSERVATIONS ACROSS THE NORTHERN PLAINS...

CITY           SKY/WX    TMP DP  RH WIND       PRES   REMARKS
RAPID CITY     CLEAR     39  29  67 NE13      30.09S
PIERRE         CLEAR     33  25  72 E7        30.15S
SIOUX FALLS    CLEAR     36  29  75 CALM      30.13R
ABERDEEN       CLEAR     31  22  69 N6        30.21R
WILLISTON      FAIR      36  23  60 E15       30.17S
DICKINSON      PTCLDY    29  17  61 E12       30.13S WCI  19
BISMARCK       CLEAR     30  22  72 E7        30.24R
FARGO          CLEAR     28  20  71 N9        30.21S WCI  19
GRAND FORKS    CLEAR     24  18  77 NW8       30.24R WCI  15
$$

...OBSERVATIONS ACROSS THE CENTRAL AND SOUTHERN PLAINS...

CITY           SKY/WX    TMP DP  RH WIND       PRES   REMARKS
GRAND ISLAND   CLEAR     48  37  65 W8        30.13S
LINCOLN        CLEAR     41  33  73 S6        30.13F
OMAHA          PTCLDY    51  37  58 SE5       30.09S
DES MOINES     PTCLDY    50  34  54 W15       30.04S
KANSAS CITY    CLEAR     45  35  68 SW7       30.13S
WICHITA        CLOUDY    50  36  58 S8        30.17S THUNDER
DODGE CITY     CLEAR     48  40  73 S15       30.12F
OKLAHOMA CITY  PTCLDY    53  40  61 SE9       30.19R
DALLAS         PTCLDY    63  55  75 CALM      30.17R
AMARILLO       CLEAR     57  47  69 S18       30.13S
$$



USA.gov is the U.S. government's official web portal to all federal, state and local government web resources and services.